timestamp,wind_dir_avg,wind_spd_max_dir,wind_spd_avg,wind_spd_gust,battery_voltage,lat,long
2019-03-06 00:00:00+00:00,259.0,257.0,11.0,12.55,,47.59359,-54.27349
2019-03-06 00:10:00+00:00,268.0,268.0,12.5,14.66,,47.59359,-54.27349
2019-03-06 00:20:00+00:00,264.0,264.0,10.22,12.13,,47.59359,-54.27349
2019-03-06 00:30:00+00:00,262.0,266.0,11.11,12.99,,47.59359,-54.27349
2019-03-06 00:40:00+00:00,272.0,272.0,10.67,12.75,,47.59359,-54.27349
2019-03-06 00:50:00+00:00,282.0,288.0,12.45,13.89,,47.59359,-54.27349
2019-03-06 01:00:00+00:00,275.0,274.0,13.25,15.76,,47.59359,-54.27349
2019-03-06 01:10:00+00:00,273.0,269.0,10.08,11.1,,47.59359,-54.27349
2019-03-06 01:20:00+00:00,270.0,278.0,12.8,15.85,,47.59359,-54.27349
2019-03-06 01:30:00+00:00,262.0,263.0,10.58,11.94,,47.59359,-54.27349
2019-03-06 01:40:00+00:00,267.0,268.0,11.24,13.66,,47.59359,-54.27349
2019-03-06 01:50:00+00:00,264.0,264.0,11.29,12.6,,47.59359,-54.27349
2019-03-06 02:00:00+00:00,270.0,263.0,11.13,12.97,,47.59359,-54.27349
2019-03-06 02:10:00+00:00,277.0,279.0,12.86,15.14,,47.59359,-54.27349
2019-03-06 02:20:00+00:00,261.0,258.0,11.15,13.51,,47.59359,-54.27349
2019-03-06 02:30:00+00:00,266.0,262.0,10.92,12.6,,47.59359,-54.27349
2019-03-06 02:40:00+00:00,259.0,262.0,10.66,12.4,,47.59359,-54.27349
2019-03-06 02:50:00+00:00,261.0,268.0,10.62,12.04,,47.59359,-54.27349
2019-03-06 03:00:00+00:00,271.0,270.0,14.44,16.27,,47.59359,-54.27349
2019-03-06 03:10:00+00:00,265.0,264.0,12.45,14.48,,47.59359,-54.27349
2019-03-06 03:20:00+00:00,263.0,267.0,11.79,13.45,,47.59359,-54.27349
2019-03-06 03:30:00+00:00,263.0,260.0,10.61,12.31,,47.59359,-54.27349
2019-03-06 03:40:00+00:00,271.0,271.0,11.17,12.51,,47.59359,-54.27349
2019-03-06 03:50:00+00:00,268.0,270.0,11.75,13.11,,47.59359,-54.27349
2019-03-06 04:00:00+00:00,277.0,274.0,10.5,13.83,,47.59359,-54.27349
2019-03-06 04:10:00+00:00,284.0,285.0,11.07,13.39,,47.59359,-54.27349
2019-03-06 04:20:00+00:00,284.0,278.0,10.86,12.08,,47.59359,-54.27349
2019-03-06 04:30:00+00:00,274.0,278.0,8.87,11.22,,47.59359,-54.27349
2019-03-06 04:40:00+00:00,263.0,264.0,7.41,8.5,,47.59359,-54.27349
2019-03-06 04:50:00+00:00,266.0,263.0,7.94,8.99,,47.59359,-54.27349
2019-03-06 05:00:00+00:00,271.0,270.0,7.74,8.73,,47.59359,-54.27349
2019-03-06 05:10:00+00:00,249.0,248.0,7.8,9.58,,47.59359,-54.27349
2019-03-06 05:20:00+00:00,251.0,252.0,7.85,8.9,,47.59359,-54.27349
2019-03-06 05:30:00+00:00,264.0,256.0,8.79,10.26,,47.59359,-54.27349
2019-03-06 05:40:00+00:00,266.0,269.0,9.33,10.6,,47.59359,-54.27349
2019-03-06 05:50:00+00:00,271.0,275.0,9.09,10.1,,47.59359,-54.27349
2019-03-06 06:00:00+00:00,272.0,277.0,9.33,10.93,,47.59359,-54.27349
2019-03-06 06:10:00+00:00,269.0,274.0,9.05,10.21,,47.59359,-54.27349
2019-03-06 06:20:00+00:00,262.0,269.0,8.47,9.91,,47.59359,-54.27349
2019-03-06 06:30:00+00:00,268.0,272.0,7.54,8.63,,47.59359,-54.27349
2019-03-06 06:40:00+00:00,274.0,270.0,6.45,7.44,,47.59359,-54.27349
2019-03-06 06:50:00+00:00,270.0,270.0,7.05,7.91,,47.59359,-54.27349
2019-03-06 07:00:00+00:00,287.0,280.0,5.28,6.19,,47.59359,-54.27349
2019-03-06 07:10:00+00:00,290.0,286.0,4.82,5.41,,47.59359,-54.27349
2019-03-06 07:20:00+00:00,280.0,283.0,6.76,8.46,,47.59359,-54.27349
2019-03-06 07:30:00+00:00,275.0,275.0,7.77,9.02,,47.59359,-54.27349
2019-03-06 07:40:00+00:00,275.0,274.0,7.92,9.4,,47.59359,-54.27349
2019-03-06 07:50:00+00:00,266.0,264.0,7.45,8.51,,47.59359,-54.27349
2019-03-06 08:00:00+00:00,274.0,272.0,6.4,8.44,,47.59359,-54.27349
2019-03-06 08:10:00+00:00,284.0,284.0,7.38,8.16,,47.59359,-54.27349
2019-03-06 08:20:00+00:00,278.0,278.0,6.76,9.69,,47.59359,-54.27349
2019-03-06 08:30:00+00:00,290.0,286.0,5.63,6.31,,47.59359,-54.27349
2019-03-06 08:40:00+00:00,287.0,298.0,4.9,5.39,,47.59359,-54.27349
2019-03-06 08:50:00+00:00,263.0,265.0,5.16,6.52,,47.59359,-54.27349
2019-03-06 09:00:00+00:00,264.0,264.0,4.88,5.38,,47.59359,-54.27349
2019-03-06 09:10:00+00:00,262.0,261.0,4.92,5.73,,47.59359,-54.27349
2019-03-06 09:20:00+00:00,277.0,283.0,5.02,5.54,,47.59359,-54.27349
2019-03-06 09:30:00+00:00,258.0,256.0,4.6,5.3,,47.59359,-54.27349
2019-03-06 09:40:00+00:00,257.0,254.0,4.56,5.2,,47.59359,-54.27349
2019-03-06 09:50:00+00:00,263.0,265.0,3.1,3.78,,47.59359,-54.27349
2019-03-06 10:00:00+00:00,287.0,285.0,4.21,4.72,,47.59359,-54.27349
2019-03-06 10:10:00+00:00,284.0,285.0,3.55,4.36,,47.59359,-54.27349
2019-03-06 10:20:00+00:00,270.0,266.0,3.25,4.19,,47.59359,-54.27349
2019-03-06 10:30:00+00:00,265.0,266.0,4.36,5.54,,47.59359,-54.27349
2019-03-06 10:40:00+00:00,285.0,282.0,3.68,4.29,,47.59359,-54.27349
2019-03-06 10:50:00+00:00,280.0,292.0,3.01,3.53,,47.59359,-54.27349
2019-03-06 11:00:00+00:00,278.0,283.0,3.77,4.58,,47.59359,-54.27349
2019-03-06 11:10:00+00:00,264.0,268.0,4.87,5.73,,47.59359,-54.27349
2019-03-06 11:20:00+00:00,272.0,267.0,3.13,3.56,,47.59359,-54.27349
2019-03-06 11:30:00+00:00,263.0,269.0,3.48,4.0,,47.59359,-54.27349
2019-03-06 11:40:00+00:00,256.0,258.0,4.41,4.94,,47.59359,-54.27349
2019-03-06 11:50:00+00:00,258.0,262.0,3.87,4.31,,47.59359,-54.27349
2019-03-06 12:00:00+00:00,272.0,270.0,3.13,3.71,,47.59359,-54.27349
2019-03-06 12:10:00+00:00,309.0,306.0,2.55,3.3,,47.59359,-54.27349
2019-03-06 12:20:00+00:00,318.0,317.0,2.23,2.86,,47.59359,-54.27349
2019-03-06 12:30:00+00:00,306.0,312.0,1.99,2.47,,47.59359,-54.27349
2019-03-06 12:40:00+00:00,305.0,291.0,1.86,2.4,,47.59359,-54.27349
2019-03-06 12:50:00+00:00,354.0,354.0,1.45,2.13,,47.59359,-54.27349
2019-03-06 13:00:00+00:00,337.0,335.0,1.21,1.49,,47.59359,-54.27349
2019-03-06 13:10:00+00:00,305.0,302.0,1.7,2.12,,47.59359,-54.27349
2019-03-06 13:20:00+00:00,290.0,285.0,1.45,2.13,,47.59359,-54.27349
2019-03-06 13:30:00+00:00,306.0,313.0,1.06,1.53,,47.59359,-54.27349
2019-03-06 13:40:00+00:00,283.0,278.0,1.97,2.52,,47.59359,-54.27349
2019-03-06 13:50:00+00:00,233.0,225.0,1.05,1.6,,47.59359,-54.27349
2019-03-06 14:00:00+00:00,162.0,157.0,0.95,1.32,,47.59359,-54.27349
2019-03-06 14:10:00+00:00,165.0,160.0,0.9,1.14,,47.59359,-54.27349
2019-03-06 14:20:00+00:00,179.0,182.0,1.53,1.97,,47.59359,-54.27349
2019-03-06 14:30:00+00:00,182.0,188.0,1.15,1.45,,47.59359,-54.27349
2019-03-06 14:40:00+00:00,107.0,123.0,0.52,0.9,,47.59359,-54.27349
2019-03-06 14:50:00+00:00,34.0,44.0,1.09,1.44,,47.59359,-54.27349
2019-03-06 15:00:00+00:00,187.0,178.0,1.48,2.12,,47.59359,-54.27349
2019-03-06 15:10:00+00:00,180.0,179.0,0.69,0.86,,47.59359,-54.27349
2019-03-06 15:20:00+00:00,191.0,197.0,1.08,1.32,,47.59359,-54.27349
2019-03-06 15:30:00+00:00,151.0,148.0,1.12,1.35,,47.59359,-54.27349
2019-03-06 15:40:00+00:00,205.0,219.0,1.07,1.46,,47.59359,-54.27349
2019-03-06 15:50:00+00:00,170.0,196.0,1.46,1.93,,47.59359,-54.27349
2019-03-06 16:00:00+00:00,205.0,191.0,1.88,2.61,,47.59359,-54.27349
2019-03-06 16:10:00+00:00,192.0,196.0,2.14,2.64,,47.59359,-54.27349
2019-03-06 16:20:00+00:00,207.0,202.0,2.08,2.49,,47.59359,-54.27349
2019-03-06 16:30:00+00:00,216.0,208.0,1.74,2.16,,47.59359,-54.27349
2019-03-06 16:40:00+00:00,176.0,172.0,2.12,2.34,,47.59359,-54.27349
2019-03-06 16:50:00+00:00,176.0,177.0,1.93,2.31,,47.59359,-54.27349
2019-03-06 17:00:00+00:00,217.0,223.0,2.44,2.81,,47.59359,-54.27349
2019-03-06 17:10:00+00:00,199.0,195.0,2.07,2.68,,47.59359,-54.27349
2019-03-06 17:20:00+00:00,176.0,178.0,2.29,2.51,,47.59359,-54.27349
2019-03-06 17:30:00+00:00,180.0,174.0,1.98,2.28,,47.59359,-54.27349
2019-03-06 17:40:00+00:00,180.0,179.0,2.78,2.99,,47.59359,-54.27349
2019-03-06 17:50:00+00:00,188.0,191.0,1.45,1.69,,47.59359,-54.27349
2019-03-06 18:00:00+00:00,214.0,222.0,0.77,1.06,,47.59359,-54.27349
2019-03-06 18:10:00+00:00,163.0,203.0,0.2,0.38,,47.59359,-54.27349
2019-03-06 18:20:00+00:00,71.0,66.0,1.18,1.38,,47.59359,-54.27349
2019-03-06 18:30:00+00:00,116.0,122.0,1.16,1.92,,47.59359,-54.27349
2019-03-06 18:40:00+00:00,85.0,84.0,1.71,2.05,,47.59359,-54.27349
2019-03-06 18:50:00+00:00,81.0,85.0,1.91,2.4,,47.59359,-54.27349
2019-03-06 19:00:00+00:00,73.0,73.0,1.79,2.04,,47.59359,-54.27349
2019-03-06 19:10:00+00:00,67.0,62.0,2.08,2.38,,47.59359,-54.27349
2019-03-06 19:20:00+00:00,74.0,73.0,2.05,2.65,,47.59359,-54.27349
2019-03-06 19:30:00+00:00,78.0,78.0,3.14,3.72,,47.59359,-54.27349
2019-03-06 19:40:00+00:00,69.0,70.0,3.58,4.05,,47.59359,-54.27349
2019-03-06 19:50:00+00:00,61.0,64.0,4.84,5.31,,47.59359,-54.27349
2019-03-06 20:00:00+00:00,66.0,59.0,4.4,4.98,,47.59359,-54.27349
2019-03-06 20:10:00+00:00,68.0,71.0,4.54,5.26,,47.59359,-54.27349
2019-03-06 20:20:00+00:00,67.0,69.0,5.23,5.84,,47.59359,-54.27349
2019-03-06 20:30:00+00:00,66.0,65.0,5.11,5.56,,47.59359,-54.27349
2019-03-06 20:40:00+00:00,57.0,52.0,4.51,5.11,,47.59359,-54.27349
2019-03-06 20:50:00+00:00,54.0,50.0,4.51,5.06,,47.59359,-54.27349
2019-03-06 21:00:00+00:00,53.0,57.0,4.06,4.48,,47.59359,-54.27349
2019-03-06 21:10:00+00:00,46.0,46.0,4.38,4.86,,47.59359,-54.27349
2019-03-06 21:20:00+00:00,53.0,54.0,4.41,5.31,,47.59359,-54.27349
2019-03-06 21:30:00+00:00,35.0,37.0,4.72,5.41,,47.59359,-54.27349
2019-03-06 21:40:00+00:00,35.0,37.0,4.62,5.14,,47.59359,-54.27349
2019-03-06 21:50:00+00:00,41.0,32.0,4.29,4.92,,47.59359,-54.27349
2019-03-06 22:00:00+00:00,33.0,37.0,3.97,4.56,,47.59359,-54.27349
2019-03-06 22:10:00+00:00,42.0,42.0,4.28,4.7,,47.59359,-54.27349
2019-03-06 22:20:00+00:00,35.0,34.0,3.98,4.52,,47.59359,-54.27349
2019-03-06 22:30:00+00:00,16.0,15.0,4.04,4.54,,47.59359,-54.27349
2019-03-06 22:40:00+00:00,7.0,6.0,4.53,5.27,,47.59359,-54.27349
2019-03-06 22:50:00+00:00,358.0,359.0,4.3,5.25,,47.59359,-54.27349
2019-03-06 23:00:00+00:00,359.0,3.0,4.9,5.83,,47.59359,-54.27349
2019-03-06 23:10:00+00:00,10.0,14.0,4.83,5.37,,47.59359,-54.27349
2019-03-06 23:20:00+00:00,5.0,1.0,3.93,4.28,,47.59359,-54.27349
2019-03-06 23:30:00+00:00,359.0,358.0,3.76,4.68,,47.59359,-54.27349
2019-03-06 23:40:00+00:00,358.0,355.0,4.12,4.6,,47.59359,-54.27349
2019-03-06 23:50:00+00:00,357.0,354.0,3.75,4.29,,47.59359,-54.27349
